Terminal Aerodrome Forecast
Issued by NWS

Home | Current Version | Previous Version | Text Only | Print | Product List | Glossary On
Versions: 1 2 3 4 5 6 7 8 9 10 11 12 13 14 15 16 17
000
FTUS45 KABQ 180500
TAFGUP
TAF
KGUP 180540Z 1806/1906 21005KT P6SM SCT025 BKN050
      TEMPO 1807/1811 3SM -SN BR OVC012
     FM181100 VRB04KT 4SM BR BKN015
      TEMPO 1811/1815 3/4SM BR OVC004
     FM181600 23004KT P6SM BKN020
     FM182000 26005KT P6SM VCSH BKN050=

USA.gov is the U.S. government's official web portal to all federal, state and local government web resources and services.